GER6MU EDDH-EDDF

Flight info

Callsign GER6MU
Flight time 0h 50m
Altitude 30000
Route AMLUH2G AMLUH M852 DENIX DCT RIMET/N0451F310 T157 KOKEB/N0404F230 T157 KERAX KERAX5A
Aircraft E190/M-SDE3GILORVW/S

Departure

Time 2026-05-04 18:21
Airport Hamburg Helmut Schmidt Airport (EDDH)

Arrival

Time 2026-05-04 19:11
Airport Frankfurt Main Airport (EDDF)
Time Latitude Longitude Altitude Speed Heading
2026-05-04 18:00 53.63330 10.00346 47 ft 0 kts 86°
2026-05-04 18:13 53.63330 10.00337 47 ft 4 kts 87°
2026-05-04 18:13 53.63330 10.00291 47 ft 4 kts 95°
2026-05-04 18:13 53.63342 10.00204 45 ft 4 kts 118°
2026-05-04 18:14 53.63358 10.00169 42 ft 4 kts 151°
2026-05-04 18:14 53.63369 10.00160 45 ft 2 kts 176°
2026-05-04 18:17 53.63352 10.00162 45 ft 6 kts 176°
2026-05-04 18:17 53.63216 10.00178 47 ft 12 kts 176°
2026-05-04 18:18 53.63130 10.00187 47 ft 13 kts 176°
2026-05-04 18:18 53.63070 10.00180 47 ft 7 kts 200°
2026-05-04 18:18 53.63024 10.00135 47 ft 8 kts 212°
2026-05-04 18:18 53.62971 10.00078 46 ft 10 kts 213°
2026-05-04 18:19 53.62884 9.99873 46 ft 13 kts 243°
2026-05-04 18:19 53.62885 9.99731 44 ft 9 kts 327°
2026-05-04 18:19 53.62893 9.99723 44 ft 1 kts 332°
2026-05-04 18:20 53.62904 9.99714 44 ft 3 kts 332°
2026-05-04 18:20 53.63094 9.99549 45 ft 66 kts 333°
2026-05-04 18:20 53.63703 9.99023 47 ft 130 kts 333°
2026-05-04 18:20 53.64641 9.98191 251 ft 169 kts 332°
2026-05-04 18:21 53.65767 9.97108 666 ft 206 kts 328°
2026-05-04 18:21 53.67086 9.95906 1011 ft 209 kts 336°
2026-05-04 18:21 53.68383 9.95142 1164 ft 190 kts 343°
2026-05-04 18:21 53.69713 9.94742 1267 ft 195 kts 357°
2026-05-04 18:22 53.71003 9.95351 1743 ft 203 kts 36°
2026-05-04 18:22 53.72033 9.97061 2283 ft 211 kts 49°
2026-05-04 18:22 53.72870 9.99122 2825 ft 215 kts 57°
2026-05-04 18:22 53.73627 10.01388 3376 ft 228 kts 69°
2026-05-04 18:23 53.73754 10.04092 3930 ft 238 kts 105°
2026-05-04 18:23 53.73078 10.06683 4541 ft 246 kts 118°
2026-05-04 18:23 53.72284 10.09322 5109 ft 257 kts 120°
2026-05-04 18:23 53.71993 10.10223 5295 ft 261 kts 121°
2026-05-04 18:24 53.70990 10.13236 5910 ft 272 kts 122°
2026-05-04 18:24 53.70025 10.16059 6452 ft 281 kts 127°
2026-05-04 18:25 53.68612 10.18316 6960 ft 283 kts 150°
2026-05-04 18:25 53.66885 10.19941 7476 ft 284 kts 158°
2026-05-04 18:25 53.65089 10.21302 7995 ft 283 kts 161°
2026-05-04 18:25 53.63265 10.22556 8502 ft 284 kts 162°
2026-05-04 18:26 53.61407 10.23724 9024 ft 285 kts 166°
2026-05-04 18:26 53.59496 10.24651 9560 ft 287 kts 168°
2026-05-04 18:26 53.57570 10.25551 10065 ft 289 kts 168°
2026-05-04 18:26 53.55610 10.26447 10559 ft 296 kts 168°
2026-05-04 18:27 53.53621 10.27359 11037 ft 303 kts 168°
2026-05-04 18:27 53.51562 10.28303 11552 ft 310 kts 168°
2026-05-04 18:27 53.49459 10.29262 12064 ft 316 kts 168°
2026-05-04 18:27 53.47314 10.30242 12591 ft 323 kts 168°
2026-05-04 18:28 53.45138 10.31300 13123 ft 328 kts 169°
2026-05-04 18:28 53.42909 10.32234 13656 ft 333 kts 168°
2026-05-04 18:28 53.40660 10.33255 14136 ft 334 kts 168°
2026-05-04 18:28 53.38415 10.34268 14608 ft 335 kts 168°
2026-05-04 18:29 53.36154 10.35284 15090 ft 338 kts 168°
2026-05-04 18:29 53.33874 10.36310 15578 ft 341 kts 168°
2026-05-04 18:29 53.32319 10.37009 15915 ft 342 kts 168°
2026-05-04 18:29 53.30011 10.38046 16414 ft 345 kts 168°
2026-05-04 18:30 53.25336 10.40139 17438 ft 350 kts 168°
2026-05-04 18:30 53.23007 10.41180 17956 ft 353 kts 168°
2026-05-04 18:30 53.20631 10.42242 18459 ft 354 kts 169°
2026-05-04 18:31 53.18242 10.43309 18926 ft 355 kts 169°
2026-05-04 18:31 53.15846 10.44252 19405 ft 354 kts 175°
2026-05-04 18:31 53.13395 10.44619 19881 ft 352 kts 181°
2026-05-04 18:31 53.10939 10.44758 20383 ft 353 kts 182°
2026-05-04 18:32 53.08483 10.44825 20880 ft 354 kts 183°
2026-05-04 18:32 53.06022 10.44711 21391 ft 353 kts 188°
2026-05-04 18:32 53.03575 10.44409 21909 ft 353 kts 188°
2026-05-04 18:32 53.01122 10.44087 22434 ft 353 kts 189°
2026-05-04 18:33 52.98678 10.43751 22965 ft 353 kts 189°
2026-05-04 18:33 52.96231 10.43415 23507 ft 352 kts 189°
2026-05-04 18:33 52.93794 10.43079 23975 ft 352 kts 189°
2026-05-04 18:33 52.91355 10.42744 24424 ft 351 kts 189°
2026-05-04 18:34 52.88917 10.42411 24892 ft 351 kts 189°
2026-05-04 18:34 52.86485 10.42080 25366 ft 351 kts 189°
2026-05-04 18:34 52.84052 10.41748 25852 ft 350 kts 189°
2026-05-04 18:34 52.81623 10.41416 26193 ft 352 kts 190°
2026-05-04 18:35 52.79170 10.41083 26501 ft 355 kts 189°
2026-05-04 18:35 52.76697 10.40749 26799 ft 358 kts 189°
2026-05-04 18:35 52.74206 10.40412 27110 ft 360 kts 190°
2026-05-04 18:35 52.71730 10.40077 27422 ft 362 kts 189°
2026-05-04 18:36 52.69215 10.39737 27745 ft 364 kts 189°
2026-05-04 18:36 52.66689 10.39396 28054 ft 366 kts 189°
2026-05-04 18:36 52.64143 10.39052 28325 ft 369 kts 189°
2026-05-04 18:36 52.61574 10.38706 28601 ft 371 kts 189°
2026-05-04 18:37 52.58989 10.38358 28882 ft 374 kts 189°
2026-05-04 18:37 52.56381 10.38008 29116 ft 378 kts 189°
2026-05-04 18:37 52.53746 10.37655 29343 ft 381 kts 189°
2026-05-04 18:37 52.51091 10.37299 29568 ft 384 kts 189°
2026-05-04 18:38 52.48411 10.36940 29803 ft 388 kts 189°
2026-05-04 18:38 52.45703 10.36578 29908 ft 393 kts 189°
2026-05-04 18:38 52.42950 10.36210 29964 ft 400 kts 189°
2026-05-04 18:39 52.37303 10.35458 29980 ft 414 kts 189°
2026-05-04 18:39 52.31521 10.34692 29953 ft 415 kts 189°
2026-05-04 18:40 52.25677 10.33914 29974 ft 427 kts 189°
2026-05-04 18:40 52.19741 10.33131 29956 ft 425 kts 189°
2026-05-04 18:41 52.13829 10.32350 29963 ft 426 kts 189°
2026-05-04 18:41 52.07912 10.31572 29958 ft 426 kts 189°
2026-05-04 18:42 52.01988 10.30795 29955 ft 427 kts 189°
2026-05-04 18:42 51.96098 10.30025 29969 ft 427 kts 189°
2026-05-04 18:43 51.90165 10.29250 29814 ft 428 kts 189°
2026-05-04 18:43 51.87195 10.28864 29628 ft 428 kts 189°
2026-05-04 18:43 51.84222 10.28479 29340 ft 428 kts 189°
2026-05-04 18:43 51.81254 10.28090 29059 ft 429 kts 189°
2026-05-04 18:44 51.78274 10.27705 28782 ft 430 kts 188°
2026-05-04 18:44 51.76300 10.27447 28610 ft 430 kts 188°
2026-05-04 18:44 51.72315 10.26935 28251 ft 428 kts 188°
2026-05-04 18:44 51.69348 10.26551 27934 ft 427 kts 188°
2026-05-04 18:45 51.66399 10.26170 27479 ft 425 kts 188°
2026-05-04 18:45 51.63471 10.25793 27012 ft 417 kts 188°
2026-05-04 18:45 51.60600 10.25423 26535 ft 413 kts 188°
2026-05-04 18:45 51.57726 10.25052 26083 ft 417 kts 188°
2026-05-04 18:46 51.54825 10.24680 25645 ft 417 kts 188°
2026-05-04 18:46 51.51945 10.24312 25215 ft 414 kts 188°
2026-05-04 18:46 51.49077 10.24113 25064 ft 414 kts 183°
2026-05-04 18:46 51.46188 10.24176 25019 ft 416 kts 182°
2026-05-04 18:47 51.43344 10.23921 24985 ft 413 kts 192°
2026-05-04 18:47 51.40572 10.22840 24979 ft 408 kts 202°
2026-05-04 18:47 51.38021 10.20893 24972 ft 405 kts 215°
2026-05-04 18:47 51.35812 10.18120 24991 ft 403 kts 225°
2026-05-04 18:48 51.33944 10.14771 24927 ft 403 kts 231°
2026-05-04 18:48 51.32216 10.11274 24697 ft 402 kts 232°
2026-05-04 18:48 51.30418 10.07840 24452 ft 402 kts 224°
2026-05-04 18:48 51.28102 10.05347 24222 ft 404 kts 209°
2026-05-04 18:49 51.25553 10.03446 24095 ft 404 kts 206°
2026-05-04 18:49 51.22961 10.01677 24034 ft 405 kts 205°
2026-05-04 18:49 51.20392 9.99972 23998 ft 405 kts 204°
2026-05-04 18:49 51.17787 9.98267 23974 ft 405 kts 204°
2026-05-04 18:50 51.15092 9.96968 23956 ft 409 kts 189°
2026-05-04 18:50 51.12236 9.97046 23978 ft 413 kts 176°
2026-05-04 18:50 51.09380 9.97606 23994 ft 414 kts 178°
2026-05-04 18:50 51.06529 9.97527 23976 ft 406 kts 189°
2026-05-04 18:51 51.03822 9.96837 23951 ft 382 kts 194°
2026-05-04 18:51 51.01302 9.95894 23937 ft 363 kts 197°
2026-05-04 18:51 50.98891 9.94776 23947 ft 362 kts 200°
2026-05-04 18:51 50.96483 9.93512 23966 ft 365 kts 201°
2026-05-04 18:52 50.94081 9.92185 23981 ft 365 kts 202°
2026-05-04 18:52 50.91735 9.90659 23976 ft 363 kts 206°
2026-05-04 18:52 50.89442 9.88997 23965 ft 363 kts 206°
2026-05-04 18:52 50.88698 9.88454 23963 ft 363 kts 207°
2026-05-04 18:53 50.88184 9.88075 23918 ft 362 kts 207°
2026-05-04 18:53 50.86015 9.86464 23390 ft 375 kts 207°
2026-05-04 18:53 50.83652 9.84717 22717 ft 374 kts 207°
2026-05-04 18:54 50.81307 9.82979 22054 ft 369 kts 206°
2026-05-04 18:54 50.78994 9.81272 21401 ft 365 kts 206°
2026-05-04 18:54 50.76704 9.79581 20784 ft 361 kts 206°
2026-05-04 18:54 50.74440 9.77911 20161 ft 357 kts 206°
2026-05-04 18:55 50.72196 9.76260 19549 ft 354 kts 206°
2026-05-04 18:55 50.67761 9.72999 18373 ft 350 kts 206°
2026-05-04 18:55 50.65556 9.71381 17721 ft 348 kts 206°
2026-05-04 18:56 50.63372 9.69779 17052 ft 345 kts 206°
2026-05-04 18:56 50.61204 9.68190 16427 ft 342 kts 206°
2026-05-04 18:56 50.59050 9.66617 15791 ft 340 kts 206°
2026-05-04 18:56 50.56911 9.65053 15183 ft 337 kts 206°
2026-05-04 18:57 50.54914 9.63182 14569 ft 334 kts 218°
2026-05-04 18:57 50.53161 9.60809 13982 ft 331 kts 222°
2026-05-04 18:57 50.51482 9.58334 13353 ft 329 kts 223°
2026-05-04 18:57 50.49843 9.55838 12697 ft 327 kts 224°
2026-05-04 18:58 50.48228 9.53349 12056 ft 325 kts 224°
2026-05-04 18:58 50.46623 9.50857 11436 ft 323 kts 224°
2026-05-04 18:58 50.45056 9.48411 11121 ft 311 kts 224°
2026-05-04 18:58 50.43561 9.46070 11017 ft 294 kts 224°
2026-05-04 18:59 50.42620 9.44594 10975 ft 284 kts 224°
2026-05-04 18:59 50.41105 9.42215 10945 ft 272 kts 224°
2026-05-04 18:59 50.39733 9.40061 10595 ft 276 kts 224°
2026-05-04 18:59 50.38317 9.37838 9906 ft 294 kts 224°
2026-05-04 19:00 50.36870 9.35572 9127 ft 292 kts 224°
2026-05-04 19:00 50.35439 9.33335 8370 ft 290 kts 224°
2026-05-04 19:00 50.34025 9.31126 7608 ft 282 kts 224°
2026-05-04 19:00 50.32665 9.29005 7163 ft 271 kts 224°
2026-05-04 19:01 50.31347 9.26948 7052 ft 266 kts 224°
2026-05-04 19:01 50.30052 9.24928 7000 ft 267 kts 224°
2026-05-04 19:01 50.28732 9.22870 6979 ft 268 kts 224°
2026-05-04 19:01 50.27414 9.20819 6973 ft 267 kts 224°
2026-05-04 19:02 50.26095 9.18769 6971 ft 267 kts 224°
2026-05-04 19:02 50.24775 9.16715 6965 ft 267 kts 224°
2026-05-04 19:02 50.23462 9.14671 6960 ft 262 kts 224°
2026-05-04 19:02 50.22202 9.12709 6850 ft 251 kts 224°
2026-05-04 19:03 50.20977 9.10799 6582 ft 247 kts 224°
2026-05-04 19:03 50.19770 9.08918 6324 ft 244 kts 224°
2026-05-04 19:03 50.18853 9.07490 6112 ft 243 kts 224°
2026-05-04 19:03 50.17656 9.05626 5853 ft 242 kts 224°
2026-05-04 19:04 50.16605 9.03805 5817 ft 235 kts 236°
2026-05-04 19:04 50.15942 9.01483 5738 ft 235 kts 250°
2026-05-04 19:04 50.15418 8.99145 5683 ft 219 kts 247°
2026-05-04 19:04 50.14874 8.97023 5590 ft 207 kts 248°
2026-05-04 19:05 50.14393 8.94930 5342 ft 203 kts 249°
2026-05-04 19:05 50.13914 8.92870 5077 ft 202 kts 248°
2026-05-04 19:05 50.13430 8.90830 4962 ft 197 kts 249°
2026-05-04 19:05 50.12972 8.88864 4896 ft 190 kts 249°
2026-05-04 19:06 50.12512 8.86906 4748 ft 196 kts 249°
2026-05-04 19:06 50.12046 8.84922 4457 ft 193 kts 249°
2026-05-04 19:06 50.11588 8.82971 4207 ft 190 kts 249°
2026-05-04 19:06 50.11134 8.81044 3974 ft 189 kts 249°
2026-05-04 19:07 50.10681 8.79119 3748 ft 190 kts 249°
2026-05-04 19:07 50.10225 8.77182 3516 ft 190 kts 250°
2026-05-04 19:07 50.09771 8.75261 3288 ft 188 kts 250°
2026-05-04 19:07 50.09333 8.73406 3083 ft 177 kts 250°
2026-05-04 19:08 50.08916 8.71640 2819 ft 172 kts 250°
2026-05-04 19:08 50.08505 8.69905 2583 ft 169 kts 251°
2026-05-04 19:08 50.08105 8.68213 2351 ft 164 kts 251°
2026-05-04 19:08 50.07710 8.66544 2142 ft 164 kts 251°
2026-05-04 19:09 50.07327 8.64929 1936 ft 153 kts 251°
2026-05-04 19:09 50.06964 8.63401 1719 ft 148 kts 252°
2026-05-04 19:09 50.06619 8.61947 1539 ft 134 kts 252°
2026-05-04 19:09 50.06289 8.60580 1416 ft 140 kts 252°
2026-05-04 19:10 50.05960 8.59151 1214 ft 140 kts 252°
2026-05-04 19:10 50.05629 8.57768 999 ft 136 kts 251°
2026-05-04 19:10 50.05302 8.56391 817 ft 136 kts 252°
2026-05-04 19:10 50.04978 8.55015 641 ft 135 kts 252°
2026-05-04 19:11 50.04648 8.53650 469 ft 134 kts 251°
2026-05-04 19:11 50.04346 8.52359 346 ft 116 kts 251°
2026-05-04 19:11 50.04117 8.51420 330 ft 70 kts 249°
2026-05-04 19:11 50.03979 8.50844 324 ft 40 kts 250°
2026-05-04 19:12 50.03887 8.50486 319 ft 30 kts 237°
2026-05-04 19:12 50.03673 8.50187 320 ft 4 kts 199°
2026-05-04 19:12 50.03642 8.50196 322 ft 6 kts 154°
2026-05-04 19:13 50.03626 8.50273 323 ft 10 kts 81°
2026-05-04 19:13 50.03645 8.50355 325 ft 14 kts 69°
2026-05-04 19:13 50.03681 8.50504 324 ft 15 kts 69°
2026-05-04 19:13 50.03720 8.50666 328 ft 16 kts 69°
2026-05-04 19:14 50.03760 8.50838 331 ft 17 kts 70°
2026-05-04 19:14 50.03801 8.51007 331 ft 17 kts 69°
2026-05-04 19:14 50.03843 8.51184 333 ft 18 kts 69°
2026-05-04 19:14 50.03890 8.51378 331 ft 20 kts 69°
2026-05-04 19:15 50.03940 8.51584 331 ft 21 kts 69°
2026-05-04 19:15 50.03991 8.51797 335 ft 21 kts 70°
2026-05-04 19:15 50.04058 8.52078 338 ft 21 kts 71°
2026-05-04 19:15 50.04091 8.52218 339 ft 20 kts 70°
2026-05-04 19:16 50.04140 8.52420 352 ft 20 kts 69°
2026-05-04 19:16 50.04189 8.52627 354 ft 21 kts 69°
2026-05-04 19:16 50.04239 8.52836 350 ft 20 kts 69°
2026-05-04 19:16 50.04287 8.53042 356 ft 20 kts 70°
2026-05-04 19:17 50.04332 8.53232 364 ft 17 kts 70°
2026-05-04 19:17 50.04368 8.53385 370 ft 13 kts 69°
2026-05-04 19:17 50.04395 8.53519 374 ft 13 kts 80°
2026-05-04 19:17 50.04406 8.53694 374 ft 20 kts 84°
2026-05-04 19:18 50.04423 8.53935 374 ft 24 kts 84°
2026-05-04 19:18 50.04440 8.54195 374 ft 24 kts 84°
2026-05-04 19:18 50.04451 8.54470 368 ft 27 kts 96°
2026-05-04 19:18 50.04351 8.54735 358 ft 31 kts 143°
2026-05-04 19:19 50.04186 8.54844 356 ft 25 kts 160°
2026-05-04 19:19 50.04018 8.54940 353 ft 25 kts 160°
2026-05-04 19:19 50.03884 8.55017 350 ft 8 kts 160°
2026-05-04 19:19 50.03847 8.55094 347 ft 10 kts 90°
2026-05-04 19:20 50.03878 8.55236 350 ft 18 kts 70°
2026-05-04 19:20 50.03931 8.55461 355 ft 24 kts 69°
2026-05-04 19:20 50.03991 8.55710 350 ft 25 kts 69°
2026-05-04 19:20 50.04052 8.55967 353 ft 25 kts 69°
2026-05-04 19:21 50.04113 8.56220 356 ft 25 kts 71°
2026-05-04 19:21 50.04172 8.56469 360 ft 25 kts 69°
2026-05-04 19:21 50.04231 8.56718 358 ft 24 kts 70°
2026-05-04 19:21 50.04289 8.56959 360 ft 24 kts 70°
2026-05-04 19:22 50.04346 8.57199 363 ft 24 kts 69°
2026-05-04 19:22 50.04404 8.57439 362 ft 24 kts 70°
2026-05-04 19:22 50.04462 8.57683 364 ft 24 kts 70°
2026-05-04 19:22 50.04519 8.57929 365 ft 24 kts 70°
2026-05-04 19:23 50.04578 8.58172 364 ft 25 kts 69°
2026-05-04 19:23 50.04636 8.58413 370 ft 24 kts 69°
2026-05-04 19:23 50.04695 8.58656 369 ft 24 kts 68°
2026-05-04 19:23 50.04759 8.58905 373 ft 25 kts 69°
2026-05-04 19:24 50.04818 8.59148 369 ft 26 kts 70°
2026-05-04 19:24 50.04847 8.59265 369 ft 7 kts 59°
2026-05-04 19:24 50.04898 8.59274 369 ft 10 kts 340°
2026-05-04 19:24 50.04931 8.59254 365 ft 0 kts 339°